Погода в Кшенском

Россия / Курская область     51°50′29″N   37°43′15″E
темп.,
°C
ветер,
м/с
пор.,
м/с
влажн.,
%
обл.,
%
осадки,
мм/ч
давл.,
гПа
погр.,
м
3 марта, ср
ср300:000ссз61198100 0.5 1013647
03:00−1ссз7139394 0.9 1015635
06:00−3ссз6149186 0.0 1016612
09:00−4ссз7138775 0.0 1019744
12:00−2ссз7108224 0.0 1020912
15:00−1сз598312 0.0 1021829
18:00−3з410909 0.0 1020263
21:00−2з5139212 0.0 1020384
4 марта, чт
чт400:00−1з6129293 0.0 1018528
03:00−3зюз6129371 0.0 1017305
06:00−3зюз613925 0.0 1015301
09:00−1зюз715863 0.0 1013467
12:00+1зюз814820 0.0 1010659
15:00+2юз716850 0.0 1008692
18:00+2зюз7178558 0.0 1005669
21:00+2зюз7159377 0.0 1004546
5 марта, пт
пт500:00+2зюз71496100 0.1 1003574
03:00+1з61397100 0.3 1003730
06:000з7138789 0.1 1004575
09:000з599692 0.1 1006595
12:000ссз4696100 0.8 1008405
15:00−1с4686100 0.8 1010510
18:00−2ссв4685100 0.0 1010548
21:00−3ссв3686100 0.0 1012382
6 марта, сб
сб600:00−4с358989 0.0 1014202
03:00−5ссз248946 0.0 1015126
06:00−6ссз239482 0.0 101699
09:00−6ссз238749 0.0 1017184
12:00−4зсз23740 0.0 1017556
15:00−2з467742 0.3 1017899
18:00−5зсз377557 0.2 1017262
21:00−5ссз249478 0.4 1019253
7 марта, вс
вс700:00−7сз489326 0.0 1019324
03:00−7зюз379014 0.0 1019223
06:00−7юз612751 0.0 1017440
09:00−5юз9156642 0.0 1015787
12:00−2юз111763100 0.0 10121135
15:00−1зюз111862100 0.0 10091283
18:00−1зюз9177399 0.0 10061156
21:00−1зюз8167996 0.0 1005955